Temp
-6 -7 -8 -8 -8 -7 -6 -6 -6 -6 -7 -7 -7 -6 -7 -7 -8 -7 -7 -8 -7 -7 -8 -8 -7 -7 -6 -6 -6 -6 -6 -6 -6 -6 -6 -6 -6 -6 -6 -7 -7 -7 -7
-7 -7 -7 -8 -8 -7 -7 -6 -6 -6 -7 -7 -7 -7 -8 -8 -7 -7 -7 -7 -7 -7 -7 -6 -6 -6 -6 -6 -6 -6 -6 -6 -6 -6 -6 -6 -6 -6 -6 -6 -6 -7 -6
-7 -7 -8 -9 -8 -7 -6 -6 -6 -6 -6 -7 -7 -7 -8 -7 -7 -7 -7 -8 -8 -7 -6 -6 -6 -6 -6 -6 -6 -6 -6 -6 -6 -6 -6 -6 -6 -6 -6 -6 -7 -7 -7
-7 -7 -7 -7 -7 -6 -6 -6 -6 -6 -6 -6 -7 -8 -8 -7 -7 -7 -8 -8 -7 -7 -6 -6 -6 -6 -6 -5 -5 -5 -5 -5 -6 -6 -6 -6 -7 -6 -6 -6 -7 -7 -6
-7 -7 -7 -7 -6 -6 -6 -6 -6 -7 -8 -8 -7 -7 -7 -7 -8 -8 -8 -7 -7 -6 -6 -6 -6 -6 -5 -5 -5 -5 -5 -5 -5 -6 -6 -6 -7 -7 -7 -7 -7 -7 -7
-7 -7 -7 -7 -6 -6 -6 -7 -7 -8 -8 -8 -8 -8 -7 -8 -8 -7 -7 -7 -7 -6 -6 -6 -6 -5 -5 -5 -5 -6 -5 -6 -6 -6 -6 -6 -6 -6 -7 -6 -6 -6 -7
-8 -7 -8 -7 -7 -6 -7 -7 -7 -9 -9 -9 -8 -8 -8 -8 -8 -7 -7 -7 -7 -6 -6 -6 -5 -5 -5 -5 -5 -5 -5 -5 -6 -6 -6 -6 -6 -6 -6 -6 -6 -6 -6
-8 -8 -8 -8 -7 -7 -7 -7 -7 -8 -8 -8 -8 -8 -8 -8 -7 -8 -7 -7 -6 -6 -6 -6 -5 -5 -5 -5 -5 -5 -5 -5 -5 -6 -6 -7 -6 -6 -6 -6 -6 -6 -6
-8 -8 -8 -8 -8 -8 -8 -7 -7 -8 -7 -7 -8 -8 -8 -7 -7 -7 -7 -7 -6 -6 -6 -6 -5 -5 -5 -5 -5 -5 -5 -5 -6 -6 -6 -6 -6 -6 -6 -7 -7 -7 -7
-7 -8 -8 -8 -8 -8 -8 -8 -8 -8 -7 -8 -8 -7 -8 -7 -7 -7 -7 -7 -7 -7 -6 -5 -5 -5 -5 -5 -5 -5 -5 -5 -5 -6 -5 -6 -6 -6 -6 -6 -6 -7 -7
-8 -7 -7 -8 -8 -8 -8 -8 -8 -8 -8 -8 -8 -7 -7 -7 -7 -7 -7 -7 -7 -7 -6 -6 -6 -5 -5 -5 -5 -5 -5 -5 -5 -5 -6 -6 -6 -5 -6 -6 -6 -6 -6
-8 -8 -8 -7 -8 -8 -8 -8 -8 -8 -8 -8 -8 -7 -7 -7 -7 -7 -7 -7 -6 -6 -6 -6 -6 -5 -5 -5 -5 -5 -5 -5 -5 -5 -5 -5 -6 -6 -6 -6 -7 -7 -7
-7 -7 -8 -7 -8 -8 -8 -8 -8 -8 -8 -8 -8 -8 -7 -7 -7 -7 -7 -7 -6 -6 -6 -6 -6 -6 -5 -5 -5 -5 -5 -5 -5 -5 -5 -5 -6 -6 -6 -7 -7 -7 -7
-7 -7 -8 -8 -8 -8 -8 -8 -8 -8 -8 -8 -8 -8 -7 -7 -7 -7 -7 -7 -7 -6 -6 -6 -6 -6 -5 -5 -5 -5 -5 -5 -5 -5 -6 -6 -6 -6 -7 -7 -8 -8 -8
-7 -8 -8 -8 -8 -8 -8 -8 -9 -9 -9 -8 -8 -8 -8 -7 -7 -7 -7 -7 -7 -6 -6 -6 -6 -6 -5 -5 -5 -5 -5 -6 -6 -6 -6 -6 -6 -7 -7 -8 -8 -8 -9
-8 -8 -8 -8 -8 -8 -8 -9 -9 -9 -8 -9 -8 -9 -8 -8 -7 -7 -7 -7 -7 -7 -7 -7 -6 -6 -6 -6 -6 -6 -6 -6 -6 -6 -6 -6 -7 -7 -8 -8 -8 -9 -9
-8 -8 -8 -8 -8 -8 -8 -8 -9 -8 -8 -8 -8 -8 -8 -8 -8 -8 -8 -8 -7 -7 -7 -6 -6 -7 -6 -6 -6 -6 -6 -6 -6 -6 -6 -7 -7 -7 -8 -8 -8 -9 -9
-8 -8 -8 -7 -8 -8 -8 -8 -7 -7 -8 -7 -7 -7 -8 -8 -8 -8 -8 -8 -8 -7 -7 -7 -6 -6 -7 -6 -6 -6 -6 -6 -6 -6 -6 -6 -7 -7 -8 -8 -9 -9 -9
-8 -8 -8 -8 -8 -8 -8 -9 -8 -7 -7 -8 -8 -7 -8 -8 -7 -7 -7 -8 -8 -8 -7 -7 -7 -7 -7 -7 -7 -7 -7 -7 -6 -6 -7 -7 -7 -7 -8 -8 -8 -9 -9
-8 -9 -9 -8 -8 -8 -8 -8 -7 -7 -7 -7 -8 -8 -8 -8 -8 -7 -7 -7 -8 -7 -7 -7 -7 -6 -7 -7 -7 -7 -7 -7 -7 -7 -7 -7 -7 -8 -8 -8 -9 -9 -10
-9 -9 -9 -8 -8 -7 -7 -7 -7 -7 -7 -7 -7 -8 -7 -7 -7 -6 -7 -7 -6 -7 -7 -7 -7 -7 -7 -7 -7 -7 -7 -7 -7 -7 -7 -8 -8 -8 -9 -9 -9 -10 -10
-9 -9 -9 -9 -8 -8 -7 -6 -5 -6 -6 -6 -7 -7 -6 -7 -7 -8 -7 -6 -6 -7 -7 -7 -7 -7 -7 -7 -8 -7 -8 -8 -8 -8 -8 -8 -8 -9 -9 -9 -10 -10 -11
-8 -8 -8 -8 -9 -9 -9 -7 -6 -6 -6 -7 -7 -7 -7 -7 -7 -8 -8 -7 -7 -7 -7 -7 -7 -7 -7 -8 -8 -7 -8 -8 -8 -8 -8 -8 -9 -9 -9 -10 -10 -10 -11
-8 -8 -9 -9 -9 -9 -9 -9 -9 -9 -8 -8 -7 -7 -7 -7 -7 -8 -8 -8 -8 -8 -7 -8 -8 -8 -8 -8 -8 -8 -8 -8 -8 -8 -8 -9 -9 -9 -9 -10 -11 -11 -11
-8 -8 -8 -8 -8 -8 -8 -9 -9 -9 -9 -9 -8 -8 -7 -7 -7 -8 -8 -8 -8 -8 -8 -8 -8 -8 -8 -8 -8 -8 -8 -9 -9 -9 -9 -9 -10 -9 -10 -10 -11 -11 -12
-8 -8 -8 -8 -8 -8 -8 -8 -8 -8 -8 -9 -9 -9 -8 -8 -8 -8 -8 -8 -8 -8 -8 -8 -8 -8 -8 -8 -8 -9 -9 -9 -9 -9 -9 -10 -10 -10 -10 -10 -11 -11 -12
Height
5916 5914 5913 5910 5911 5918 5920 5920 5920 5922 5922 5921 5923 5924 5927 5926 5929 5930 5932 5932 5931 5931 5930 5929 5929 5928 5927 5926 5925 5923 5921 5921 5920 5919 5917 5914 5912 5909 5907 5907 5908 5906 5906
5914 5911 5909 5908 5908 5914 5916 5918 5919 5918 5919 5922 5923 5924 5924 5926 5929 5931 5930 5930 5931 5930 5932 5931 5930 5928 5927 5926 5925 5923 5921 5920 5918 5916 5916 5913 5911 5909 5906 5905 5904 5903 5902
5912 5909 5907 5908 5907 5909 5912 5914 5914 5918 5920 5920 5921 5923 5924 5926 5928 5929 5928 5929 5930 5930 5930 5929 5928 5927 5925 5925 5922 5921 5920 5918 5916 5914 5913 5911 5908 5907 5906 5905 5903 5902 5899
5911 5909 5909 5908 5908 5908 5910 5912 5911 5912 5915 5917 5919 5922 5925 5926 5927 5927 5926 5928 5929 5929 5928 5927 5927 5925 5923 5923 5921 5919 5917 5915 5912 5910 5909 5907 5904 5902 5901 5899 5898 5896 5894
5911 5910 5910 5910 5909 5909 5909 5909 5911 5911 5913 5916 5918 5921 5924 5925 5923 5924 5925 5925 5926 5926 5926 5926 5925 5923 5922 5921 5920 5918 5916 5913 5910 5907 5905 5904 5902 5900 5897 5896 5894 5892 5889
5912 5910 5908 5907 5907 5907 5908 5908 5908 5908 5910 5913 5915 5917 5918 5918 5919 5920 5921 5922 5924 5924 5924 5923 5921 5920 5921 5919 5916 5915 5913 5911 5908 5906 5903 5900 5899 5897 5895 5893 5891 5889 5887
5912 5910 5908 5909 5905 5908 5907 5907 5909 5909 5908 5910 5912 5915 5918 5917 5915 5918 5919 5920 5922 5922 5921 5920 5919 5919 5919 5917 5915 5913 5910 5908 5906 5904 5901 5898 5896 5894 5892 5890 5887 5885 5882
5912 5912 5911 5908 5906 5906 5906 5909 5910 5910 5910 5911 5914 5914 5915 5916 5916 5916 5918 5919 5920 5918 5918 5918 5918 5917 5915 5914 5913 5910 5908 5906 5903 5900 5898 5896 5893 5891 5889 5886 5884 5881 5879
5910 5910 5911 5909 5905 5904 5906 5907 5909 5911 5912 5912 5915 5915 5915 5917 5916 5918 5917 5916 5915 5916 5916 5916 5915 5914 5912 5911 5909 5907 5905 5901 5898 5896 5892 5890 5888 5887 5884 5882 5880 5877 5874
5910 5911 5910 5909 5907 5905 5905 5907 5908 5910 5911 5912 5912 5914 5915 5915 5916 5916 5916 5915 5915 5913 5913 5914 5912 5911 5910 5908 5906 5905 5902 5900 5896 5893 5891 5889 5886 5884 5881 5879 5877 5874 5872
5909 5909 5909 5909 5908 5906 5906 5907 5909 5909 5908 5910 5910 5912 5913 5914 5913 5913 5915 5915 5914 5912 5911 5910 5909 5908 5907 5906 5903 5901 5899 5897 5895 5891 5889 5886 5883 5880 5878 5874 5871 5868 5865
5906 5907 5907 5907 5906 5906 5906 5906 5907 5907 5906 5907 5908 5909 5910 5911 5911 5910 5910 5912 5912 5911 5910 5908 5907 5906 5905 5903 5901 5899 5896 5892 5890 5889 5887 5884 5881 5877 5873 5868 5865 5861 5858
5902 5903 5903 5903 5903 5903 5904 5904 5905 5905 5905 5904 5903 5905 5906 5906 5906 5906 5906 5907 5907 5906 5905 5904 5903 5903 5901 5899 5897 5895 5892 5890 5887 5883 5881 5879 5876 5873 5868 5863 5859 5855 5852
5897 5898 5898 5898 5898 5898 5898 5898 5900 5900 5900 5900 5900 5900 5901 5901 5900 5900 5902 5903 5903 5901 5900 5900 5900 5900 5898 5896 5894 5890 5888 5885 5883 5880 5877 5874 5871 5867 5864 5860 5854 5849 5844
5890 5891 5891 5892 5892 5891 5891 5891 5893 5894 5894 5894 5894 5894 5895 5895 5896 5896 5897 5898 5898 5896 5895 5895 5896 5895 5894 5892 5889 5885 5881 5879 5878 5876 5873 5869 5865 5861 5858 5853 5848 5843 5837
5882 5883 5884 5883 5882 5883 5883 5883 5884 5884 5886 5886 5887 5887 5888 5889 5891 5891 5892 5892 5892 5891 5891 5890 5890 5889 5888 5888 5885 5882 5879 5876 5873 5870 5867 5863 5858 5852 5848 5844 5840 5834 5828
5874 5874 5875 5874 5874 5874 5874 5872 5870 5872 5872 5872 5878 5881 5880 5880 5881 5883 5885 5886 5886 5886 5885 5884 5883 5882 5882 5881 5879 5878 5874 5872 5867 5863 5859 5855 5850 5845 5839 5834 5829 5824 5818
5864 5864 5865 5863 5865 5863 5860 5854 5851 5858 5860 5861 5867 5871 5873 5874 5875 5877 5878 5878 5879 5879 5878 5879 5879 5878 5876 5875 5874 5873 5869 5864 5861 5856 5851 5847 5842 5836 5831 5826 5820 5814 5807
5853 5854 5853 5853 5852 5850 5848 5844 5844 5844 5850 5852 5856 5861 5864 5866 5867 5868 5869 5870 5870 5871 5871 5872 5872 5870 5870 5869 5867 5864 5861 5857 5853 5848 5843 5837 5832 5828 5823 5817 5812 5807 5799
5845 5843 5842 5842 5841 5839 5832 5827 5827 5831 5836 5838 5843 5848 5850 5852 5856 5858 5858 5861 5863 5864 5864 5865 5865 5864 5862 5861 5859 5856 5852 5848 5845 5840 5835 5830 5825 5820 5815 5809 5803 5796 5789
5836 5835 5833 5831 5828 5822 5813 5808 5810 5814 5819 5824 5830 5834 5838 5840 5845 5848 5849 5850 5853 5854 5856 5856 5857 5858 5855 5852 5851 5848 5844 5839 5836 5833 5828 5822 5816 5811 5805 5800 5794 5787 5778
5828 5827 5823 5821 5816 5809 5800 5795 5781 5803 5809 5814 5818 5821 5826 5830 5833 5837 5839 5840 5842 5842 5846 5848 5849 5849 5847 5844 5842 5840 5837 5832 5827 5824 5820 5814 5808 5802 5796 5790 5783 5774 5766
5820 5819 5817 5814 5811 5805 5798 5789 5777 5786 5800 5802 5805 5810 5815 5819 5826 5827 5829 5831 5834 5837 5838 5840 5841 5840 5839 5838 5833 5830 5828 5824 5820 5815 5811 5806 5801 5793 5787 5780 5772 5764 5755
5811 5811 5810 5808 5805 5802 5800 5795 5789 5790 5794 5798 5796 5802 5808 5813 5818 5820 5822 5825 5828 5831 5831 5832 5831 5831 5830 5827 5823 5822 5820 5815 5810 5806 5802 5797 5792 5784 5776 5770 5763 5756 5746
5804 5804 5803 5801 5798 5797 5795 5796 5795 5795 5799 5799 5799 5799 5801 5805 5810 5814 5816 5819 5821 5823 5823 5823 5823 5822 5820 5816 5814 5811 5808 5805 5800 5796 5792 5788 5783 5775 5767 5761 5754 5745 5736
5795 5797 5796 5795 5795 5795 5794 5794 5794 5794 5798 5802 5803 5800 5800 5801 5805 5808 5810 5811 5811 5813 5813 5812 5810 5811 5809 5806 5805 5802 5797 5794 5790 5787 5782 5778 5774 5766 5759 5753 5745 5736 5725
Wind_Speed
14 12 15 15 16 7 5 4 6 3 4 4 6 5 2 5 3 4 1 3 5 7 7 8 7 10 10 9 9 9 9 10 10 7 10 11 13 13 12 5 8 8 9
15 15 19 19 13 6 3 3 4 3 4 4 5 3 3 1 2 1 2 4 4 6 3 7 7 8 8 7 8 10 12 13 13 13 10 10 10 11 11 10 11 11 12
11 10 4 4 6 5 4 1 1 4 6 8 6 3 3 5 3 1 1 4 6 4 5 7 7 6 7 9 11 12 12 13 14 14 13 13 12 12 10 10 11 13 15
10 6 3 5 7 5 4 1 1 4 6 8 6 4 7 6 4 3 2 2 2 4 5 4 4 6 9 12 13 14 15 15 16 15 15 13 14 15 14 13 13 14 15
12 9 7 10 7 4 1 1 1 3 7 9 10 10 9 7 5 2 0 2 4 3 3 3 5 8 10 12 14 15 15 14 14 15 16 15 14 14 16 17 17 18 19
10 8 10 8 6 2 2 5 6 3 6 10 10 8 6 9 6 1 1 2 3 2 2 4 7 9 9 11 12 13 16 17 18 17 17 17 16 15 16 16 17 17 18
8 8 10 0 4 4 7 8 6 7 4 10 9 8 7 10 3 2 4 3 3 0 2 5 7 8 10 11 13 16 16 17 17 17 16 17 16 16 16 17 17 18 17
8 9 11 10 11 10 9 7 8 9 8 6 5 6 7 7 6 4 5 2 2 1 4 4 5 8 10 13 16 16 17 16 15 15 14 13 14 14 15 16 16 17 19
7 9 10 11 13 13 11 8 6 6 3 4 2 4 5 5 4 4 4 3 2 2 4 3 7 11 13 15 15 14 14 16 16 15 15 16 18 19 20 20 19 19 19
3 6 10 10 15 12 11 8 5 5 5 4 3 5 6 5 5 4 4 4 3 7 7 6 10 12 14 15 15 15 16 17 18 18 17 17 17 16 16 18 20 21 21
7 9 8 7 12 13 6 7 6 6 5 7 8 9 9 8 5 5 5 6 6 7 8 10 12 14 13 11 11 13 16 18 16 14 14 16 16 17 17 18 19 22 24
10 14 14 13 14 12 10 6 6 6 6 7 8 9 9 10 8 7 7 8 8 7 9 10 11 12 10 9 13 15 15 13 10 10 11 12 14 16 18 19 21 23 24
16 16 18 20 18 18 16 14 12 13 11 10 9 11 11 10 8 10 9 11 10 10 12 13 11 10 9 13 15 16 13 10 9 9 11 14 16 17 19 20 21 23 26
23 23 21 20 22 21 21 20 19 17 17 19 14 13 13 13 11 11 11 14 12 11 13 15 13 10 11 14 16 12 10 11 12 13 16 18 19 21 24 25 26 27 29
25 22 23 23 27 27 27 25 24 22 22 21 19 18 16 16 15 13 13 15 14 13 15 15 13 11 13 17 17 12 12 14 16 19 21 21 23 25 27 28 29 29 30
22 24 27 30 32 32 31 31 34 32 27 26 24 22 20 20 18 17 17 16 16 16 17 17 15 15 15 19 19 17 15 17 19 21 23 24 25 25 27 29 31 33 35
31 33 34 37 37 37 35 37 37 39 37 29 28 26 25 23 21 22 21 21 19 18 20 20 18 18 19 21 21 20 20 22 24 25 26 27 29 30 31 33 34 36 38
32 34 36 39 38 37 40 45 41 40 32 29 32 31 26 25 27 26 23 22 21 21 24 25 22 23 24 26 26 26 26 27 29 29 29 32 32 33 34 37 37 39 40
30 30 33 36 35 38 41 46 45 40 41 34 35 38 34 33 29 30 26 25 24 19 22 25 27 27 28 29 31 32 30 30 31 32 32 33 33 34 36 38 40 41 42
28 29 30 32 36 38 45 50 50 43 43 42 38 41 41 38 36 36 29 28 33 33 31 29 29 30 30 31 34 33 30 31 33 34 34 34 34 35 37 40 41 42 43
29 28 31 33 36 38 52 45 48 40 48 45 43 44 44 41 39 37 36 32 30 32 40 32 28 30 31 33 33 33 31 32 34 35 37 34 33 35 38 40 41 43 45
31 29 30 32 34 38 34 24 60 26 38 33 33 32 36 36 33 33 33 31 27 24 24 25 25 29 32 34 34 34 34 34 34 36 37 36 35 35 37 40 41 43 47
30 27 29 32 29 28 34 18 27 42 37 31 32 37 41 45 39 27 20 20 18 18 23 24 25 30 33 31 34 36 36 37 36 37 37 37 37 36 38 40 42 46 51
24 22 25 25 25 23 26 24 17 10 9 16 15 24 33 28 16 18 20 19 19 20 24 27 30 31 32 33 36 37 37 37 36 36 36 38 38 37 38 40 43 48 53
24 23 26 25 23 25 23 22 18 13 9 12 13 20 19 14 15 19 20 21 22 25 28 30 30 31 31 34 37 36 38 37 36 36 36 38 38 38 39 41 44 49 53
33 27 23 23 23 22 25 25 22 19 20 17 17 20 21 20 18 21 23 25 27 27 27 30 31 31 32 35 35 35 36 35 36 36 36 37 38 38 39 42 45 50 51
Wind_Direction
322 300 269 271 269 254 264 277 281 265 238 63 131 180 173 84 91 103 83 34 21 358 12 40 6 356 3 9 8 12 0 351 345 355 339 349 352 360 14 352 311 335 310
324 301 267 252 262 266 285 241 260 284 232 218 205 216 182 218 248 317 16 360 345 323 319 339 351 5 13 11 4 353 343 341 341 350 354 347 345 347 349 341 330 315 302
332 359 71 190 263 288 279 217 208 204 213 213 225 213 183 207 205 170 44 335 321 303 337 353 8 7 6 354 349 352 348 345 344 342 342 333 330 328 326 313 307 305 305
322 314 307 225 223 228 250 329 296 262 225 211 200 197 205 196 185 167 257 323 306 340 357 8 8 3 350 350 350 352 347 344 340 337 334 339 332 330 326 329 322 313 308
313 331 330 296 259 226 137 23 10 196 192 202 196 197 212 215 197 189 264 354 344 340 6 348 1 359 351 352 351 347 342 338 333 331 331 336 338 332 332 332 329 327 326
328 324 278 259 247 196 60 40 8 14 183 189 188 201 220 230 177 155 286 290 296 309 12 350 351 349 349 344 341 344 347 347 345 343 341 344 350 347 342 339 336 332 324
34 24 23 225 95 86 54 45 33 26 237 184 183 186 220 254 187 210 261 290 279 351 345 347 344 335 337 343 347 350 350 348 348 348 349 345 346 344 343 343 340 338 339
30 33 32 37 73 72 56 30 24 25 56 148 192 210 225 221 226 230 261 251 189 342 334 338 327 331 334 345 349 348 348 349 351 350 350 349 346 347 345 344 343 347 349
35 29 31 27 47 58 55 53 30 8 31 90 285 255 219 240 244 234 224 225 137 267 283 315 324 328 343 348 343 345 351 350 351 351 352 350 348 348 346 346 345 344 340
353 3 6 33 26 36 39 32 25 357 338 329 273 277 271 268 282 276 228 243 267 293 304 315 319 333 343 341 346 351 353 348 343 345 345 338 337 338 336 335 336 333 332
310 322 337 351 5 17 24 21 20 5 360 340 305 289 287 290 295 267 250 250 264 264 288 302 322 334 331 332 347 344 331 326 333 340 340 336 331 335 335 332 329 326 324
283 300 317 324 333 343 354 339 333 336 347 344 321 305 294 286 278 266 273 276 281 272 273 299 323 323 318 335 332 319 316 315 324 339 336 326 327 326 321 319 320 319 316
279 286 294 303 312 320 316 319 322 320 314 320 314 301 303 299 285 289 279 273 278 283 293 309 318 313 319 324 317 313 315 324 329 325 320 317 315 313 310 309 310 312 314
276 279 276 281 289 299 303 303 308 311 303 305 306 307 297 293 297 281 273 268 271 279 288 299 308 299 308 309 308 311 320 319 313 306 305 310 312 311 311 313 314 316 315
262 260 264 269 279 287 294 296 293 293 290 286 290 299 296 288 285 282 270 267 266 266 278 292 305 289 296 296 298 297 303 309 308 307 308 313 315 315 314 315 314 313 313
260 264 267 274 278 288 289 285 280 275 264 274 274 276 295 284 280 285 280 270 271 278 282 287 287 279 286 291 294 295 301 309 310 309 312 320 321 323 325 325 322 319 317
267 269 272 278 282 279 279 274 271 272 252 242 255 267 274 279 275 278 277 278 268 274 275 280 279 272 275 281 287 296 300 303 304 312 318 321 325 329 329 327 324 321 318
272 273 275 277 278 278 276 271 254 255 273 261 255 264 261 259 264 263 267 271 279 279 282 282 281 272 273 279 290 295 298 300 306 311 315 316 319 325 328 328 325 319 317
278 280 279 278 280 279 276 271 277 258 251 254 251 253 269 254 263 258 259 270 270 275 273 278 281 280 277 280 287 292 298 303 305 308 311 314 318 323 326 325 324 322 320
280 285 284 281 281 283 285 277 275 265 254 254 251 253 260 255 258 262 267 271 266 275 284 280 279 283 285 287 290 292 297 301 303 306 312 317 319 321 324 325 323 322 322
280 286 281 285 287 296 293 271 255 259 255 255 257 259 257 256 255 263 269 274 268 276 278 266 276 281 283 286 287 291 297 301 305 309 314 316 316 320 322 323 324 324 322
281 281 285 291 301 303 305 262 240 232 241 250 248 240 240 245 262 264 270 284 278 264 259 268 277 282 283 286 292 294 299 304 307 311 315 314 314 319 322 322 323 322 321
283 280 280 284 296 302 324 264 208 226 255 264 270 259 244 260 267 257 259 251 250 255 267 275 280 281 283 288 291 297 303 306 309 312 314 311 313 319 323 323 322 323 324
279 275 283 279 283 303 318 333 343 333 283 250 244 246 242 234 231 223 240 251 261 267 275 283 283 282 288 291 295 298 302 304 306 310 312 309 312 321 322 321 324 326 326
274 278 280 291 282 289 302 314 322 308 295 272 252 242 240 231 214 230 242 251 261 272 278 280 282 286 290 292 294 300 303 306 309 310 309 308 313 320 321 323 326 327 329
269 268 274 281 286 281 285 294 301 295 268 252 251 261 261 257 246 245 251 255 262 268 271 274 280 287 287 288 295 301 306 306 307 307 306 308 314 319 324 326 327 327 330